This demonstration page uses our WeatherBlox Daily Observations layout. Learn more.

Left ArrowRight Arrow

Hourly Observations for June 15, 2021

Temp ( °F °C ) Dew Point ( °F °C ) Humidity (%) Winds ( mph kmh ) Pressure ( in mb ) Visibility ( mi km ) Precip ( " mm )
12:53 am 00:53 Clear 76 24.4 56 13.3 50 50 ENE 18 30 29.81 1009 10 16 N/A
1:53 am 01:53 Clear 79 26.1 53 11.7 41 41 NE 14 22 29.72 1006 10 16 N/A
2:53 am 02:53 Clear 82 27.8 51 10.6 34 34 VRB 5 7 29.69 1006 10 16 N/A
3:53 am 03:53 Clear 78 25.6 51 10.6 39 39 NNE 8 13 29.71 1006 10 16 N/A
4:53 am 04:53 Clear 79 26.1 47 8.3 32 32 ENE 7 11 29.70 1006 10 16 N/A
5:53 am 05:53 Sunny 75 23.9 49 9.4 40 40 ESE 7 11 29.69 1006 10 16 N/A
6:48 am 06:48 Sunny 84 29 45 7 25 25 SSE 17 28 29.60 1002 10 16 N/A
6:53 am 06:53 Sunny 86 30 44 6.7 23 23 SSE 16 26 29.69 1005 10 16 N/A
7:53 am 07:53 Sunny 88 31.1 48 8.9 25 25 SSE 24 39 29.66 1005 10 16 N/A
8:53 am 08:53 Sunny 89 31.7 48 8.9 24 24 SSE 32 52 29.65 1004 10 16 N/A
9:53 am 09:53 Sunny 92 33.3 53 11.7 27 27 SSE 29 46 29.63 1003 10 16 N/A
10:53 am 10:53 Sunny 97 36.1 55 12.8 24 24 SSE 22 35 29.61 1003 10 16 N/A
11:53 am 11:53 Sunny 101 38.3 49 9.4 17 17 S 20 31 29.62 1003 10 16 N/A
12:53 pm 12:53 Sunny 101 38.3 45 7.2 15 15 SSW 23 37 29.64 1004 10 16 N/A
1:53 pm 13:53 Sunny 102 38.9 52 11.1 19 19 SSW 22 35 29.63 1003 10 16 N/A
2:53 pm 14:53 Sunny 102 38.9 41 5 12 12 WSW 24 39 29.65 1004 10 16 N/A
4:53 pm 16:53 Sunny 96 35.6 53 11.7 23 23 NW 17 28 29.67 1005 10 16 N/A
5:53 pm 17:53 Sunny 93 33.9 55 12.8 28 28 NNW 14 22 29.67 1005 10 16 N/A
6:53 pm 18:53 Sunny 90 32.2 55 12.8 31 31 NW 14 22 29.67 1005 10 16 N/A
7:53 pm 19:53 Sunny 85 29.4 54 12.2 35 35 NNW 9 15 29.68 1005 10 16 N/A
8:53 pm 20:53 Sunny 80 26.7 54 12.2 41 41 NNW 8 13 29.71 1006 10 16 N/A
9:53 pm 21:53 Clear 77 25 56 13.3 48 48 NW 13 20 29.77 1008 10 16 N/A
10:53 pm 22:53 Mostly Clear 74 23.3 48 8.9 40 40 NW 17 28 29.89 1012 10 16 N/A
11:28 pm 23:28 Partly Cloudy with Light Rain 72 22.2 50 10 46 46 WNW 12 19 29.83 1010 10 16 0.00 0.00
11:53 pm 23:53 Mostly Clear 70 21.1 46 7.8 42 42 NW 23 37 29.99 1016 10 16 0.00 0.00

Powered by AerisWeather